KN4RPA Weather Reports


Display with metric or nautical units.
time (UTC)temp
F
wind
direction
speed
MPH
gust
MPH
rain 1hr
in
rain 24hr
in
rain mn
in
humidity
%
barometer
mb
20260507003041 67 161 0.0 1.0 0.00 0.06 0.06 77 1007.1
20260507001540 68 161 0.0 3.0 0.00 0.06 0.06 76 1007.1
20260507000043 68 161 0.0 1.0 0.00 0.06 0.06 76 1007.1
20260506234540 69 161 0.0 2.0 0.00 0.06 0.06 75 1006.9
20260506233039 69 161 0.0 6.0 0.00 0.06 0.06 75 1006.6
20260506231538 69 161 0.0 5.0 0.00 0.06 0.06 74 1006.6
20260506230037 69 162 0.0 5.0 0.00 0.06 0.06 73 1006.7
20260506224538 70 159 0.0 5.0 0.00 0.06 0.06 72 1006.8
20260506223037 70 159 0.0 6.0 0.00 0.06 0.06 71 1006.7
20260506221536 70 165 0.0 5.0 0.00 0.06 0.06 71 1006.9
20260506220038 70 164 0.0 6.0 0.00 0.06 0.06 71 1006.8
20260506214535 70 159 0.0 11.0 0.00 0.06 0.06 70 1006.6
20260506213034 70 157 0.0 7.0 0.00 0.06 0.06 71 1006.9
20260506211533 70 169 0.0 9.0 0.00 0.06 0.06 71 1006.6
20260506210033 69 166 1.0 7.0 0.00 0.06 0.06 72 1006.7
20260506204531 69 159 0.0 3.0 0.00 0.06 0.06 72 1006.5
20260506203029 68 162 1.0 9.0 0.00 0.06 0.06 73 1006.5
20260506201541 68 168 4.0 10.0 0.00 0.06 0.06 74 1006.7
20260506200029 67 153 0.0 6.0 0.00 0.06 0.06 76 1006.6
20260506194529 66 160 1.0 7.0 0.00 0.06 0.06 77 1006.8
20260506193026 66 153 2.0 12.0 0.00 0.06 0.06 78 1007.0
20260506191522 66 167 2.0 8.0 0.00 0.06 0.06 79 1007.3
20260506190020 66 161 0.0 8.0 0.00 0.06 0.06 79 1007.7
20260506184520 66 175 1.0 11.0 0.00 0.06 0.06 79 1008.0
20260506183019 66 155 0.0 8.0 0.00 0.06 0.06 79 1007.7
20260506181518 65 161 0.0 8.0 0.00 0.06 0.06 81 1008.0
20260506180018 65 160 0.0 9.0 0.00 0.06 0.06 81 1008.0
20260506174516 65 155 0.0 6.0 0.00 0.06 0.06 82 1008.1
20260506173015 64 153 2.0 15.0 0.00 0.06 0.06 84 1008.1
20260506171516 64 149 0.0 3.0 0.00 0.06 0.06 86 1008.2
20260506170015 63 155 0.0 6.0 0.00 0.06 0.06 87 1008.1
20260506164512 63 157 0.0 10.0 0.00 0.06 0.06 88 1008.4
20260506163017 62 175 1.0 8.0 0.00 0.06 0.06 89 1008.5
20260506161510 62 158 0.0 9.0 0.00 0.06 0.06 89 1009.0
20260506160012 61 159 0.0 5.0 0.00 0.06 0.06 89 1008.7
20260506154506 61 163 0.0 5.0 0.01 0.06 0.06 89 1008.8
20260506153003 61 161 2.0 11.0 0.02 0.06 0.06 89 1008.7
20260506151501 61 164 1.0 6.0 0.05 0.06 0.06 88 1008.7
20260506144600 61 161 3.0 10.0 0.04 0.05 0.05 86 1009.1
20260506143056 62 160 1.0 10.0 0.03 0.04 0.04 85 1009.4
20260506141557 62 160 0.0 5.0 0.02 0.02 0.02 83 1009.4
20260506134551 62 156 0.0 3.0 0.01 0.01 0.01 81 1009.0
20260506133053 62 155 0.0 6.0 0.01 0.01 0.01 79 1009.1
20260506131549 63 155 0.0 5.0 0.00 0.00 0.00 76 1009.2
20260506130052 63 157 0.0 7.0 0.00 0.00 0.00 75 1009.3
20260506124543 63 155 2.0 9.0 0.00 0.00 0.00 72 1009.2
20260506123042 64 163 0.0 6.0 0.00 0.00 0.00 70 1008.9
20260506121541 64 163 1.0 6.0 0.00 0.00 0.00 69 1009.0
20260506120042 64 154 0.0 5.0 0.00 0.00 0.00 68 1009.0
20260506114544 64 164 0.0 6.0 0.00 0.00 0.00 68 1009.2
20260506113038 64 164 2.0 7.0 0.00 0.00 0.00 68 1009.1
20260506111542 65 163 0.0 11.0 0.00 0.00 0.00 68 1009.0
20260506110037 65 159 0.0 5.0 0.00 0.00 0.00 68 1008.7
20260506104541 65 158 2.0 8.0 0.00 0.00 0.00 68 1008.7
20260506103033 65 160 1.0 7.0 0.00 0.00 0.00 68 1008.8
20260506101536 65 150 1.0 7.0 0.00 0.00 0.00 68 1008.8
20260506100033 65 161 0.0 4.0 0.00 0.00 0.00 67 1008.9
20260506094531 65 165 0.0 1.0 0.00 0.00 0.00 67 1008.8
20260506093052 65 153 0.0 9.0 0.00 0.00 0.00 66 1008.6
20260506091529 65 161 0.0 3.0 0.00 0.00 0.00 66 1008.8
20260506090028 65 166 0.0 7.0 0.00 0.00 0.00 66 1008.8
20260506084527 65 161 1.0 5.0 0.00 0.00 0.00 65 1009.0
20260506083026 65 161 2.0 9.0 0.00 0.00 0.00 65 1009.0
20260506081525 65 159 0.0 3.0 0.00 0.00 0.00 64 1009.1
20260506073020 66 159 1.0 7.0 0.00 0.00 0.00 61 1009.0
20260506071519 67 176 0.0 9.0 0.00 0.00 0.00 60 1009.1
20260506061511 68 167 1.0 8.0 0.00 0.00 0.00 56 1009.3
20260506044501 71 157 2.0 11.0 0.00 0.00 0.00 51 1009.8
20260506043100 71 161 2.0 9.0 0.00 0.00 0.00 50 1009.8
20260506041610 71 157 3.0 11.0 0.00 0.00 0.00 49 1009.9
20260506034603 72 157 0.0 12.0 0.00 0.00 0.00 47 1009.7
20260506033059 72 169 0.0 10.0 0.00 0.00 0.00 47 1009.7
20260506031600 72 159 0.0 6.0 0.00 0.00 0.00 47 1009.7
20260506030057 71 153 0.0 6.0 0.00 0.00 0.00 47 1009.8
20260506024608 72 150 0.0 1.0 0.00 0.00 0.00 46 1010.0
20260506023057 72 168 0.0 3.0 0.00 0.00 0.00 45 1009.9
20260506021555 72 168 0.0 2.0 0.00 0.00 0.00 44 1009.9
20260506020121 73 158 0.0 3.0 0.00 0.00 0.00 42 1010.0
20260506014554 73 157 0.0 1.0 0.00 0.00 0.00 41 1009.9
20260506013053 74 157 0.0 8.0 0.00 0.00 0.00 39 1009.7
20260506011554 74 159 0.0 5.0 0.00 0.00 0.00 37 1009.4
20260506010053 75 162 1.0 6.0 0.00 0.00 0.00 36 1009.3
20260506004552 75 164 1.0 11.0 0.00 0.00 0.00 35 1009.2